Location: Marcé
(47.5801°N, 0.3280°W)
Time: 05:41:41
(UTC+01:00)

deb Explorer IX - Pass Details

Date: 09 October 2022
Orbit: 533 x 1057 km, 38.8° (Epoch: 02 December)

Event Time Altitude Azimuth Distance (km) Brightness Sun altitude
Exits shadow 05:53:34 15° 165° (SSE) 1,620 ? -23.8°
Maximum altitude 05:54:10 15° 155° (SSE) 1,615 ? -23.7°
Drops below altitude 10° 05:56:52 10° 119° (ESE) 2,016 ? -23.2°
Sets 06:00:12 0° 98° (E) 3,040 ? -22.7°
